User: anonymous   Login
Location: Wilsall
(45.9940°N, 110.6590°W)
Time: 10:39:07
(UTC-07:00)
Language:

GP-B - Orbit

View from above orbital plane
View from above orbital plane
View from above satellite
View from above satellite

Ground track
Ground track

The orbit data is extracted from the following two-line orbital elements,

1 28230U 04014A   15030.37906126  .00000890  00000-0  12150-3 0  2797
2 28230 089.8841 136.7810 0002839 092.9039 267.2508 14.77940850580744
Epoch (UTC): 30 January 2015 09:05:50
Eccentricity: 0.0002839
inclination: 89.8841°
perigee height: 634 km
apogee height: 638 km
right ascension of ascending node: 136.7810°
argument of perigee: 92.9039°
revolutions per day: 14.77940850
mean anomaly at epoch: 267.2508°
orbit number at epoch: 58074

The dashed part of the orbit path shows where the satellite is in the earth's shadow,  

DLR